Tracking 18852 objects as of 23-Nov-2017
HD Live streaming from Space Station
objects crossing your sky now

FENGYUN 1C DEB

Track FENGYUN 1C DEB now!
10-day predictions


NORAD ID: 36731
Int'l Code: 1999-025EBD
Perigee: 756.1 km
Apogee: 828.3 km
Inclination: 99.2 °
Period: 100.6 minutes
Semi major axis: 7163 km
RCS: 0.0121 m2 (small)
Launch date: May 10, 1999
Source: People's Republic of China (PRC)
Launch site: Taiyaun Space Center, China (TSC)

Note: This is SATELLITE DEBRIS
aabbcc
Your satellite tracking list
Your tracking list is empty




NASA's NSSDC Master Catalog

Two Line Element Set (TLE):
1 36731U 99025EBD 17319.78941843  .00001006  00000-0  38777-3 0  9992
2 36731  99.1686 159.6433 0050409  98.1112 262.5792 14.31986610462422
Source of the keplerian elements: AFSPC